2018 Great Southern Half Marathon & 10K
Skip Navigation Links
Results
Entry Statistics
Mobile Results
Race Website
15 Jul 2018
HyperLink
Provisional Results. Please email any queries to Event Strategies before 6pm Wed 19 July after which results will be proclaimed “FINAL”
Page 1 of 8 (357 items)
[1]2345678
Pos
Race No
Fav
Share
Name
Time *
Category
Cat Pos
Age
Gender
Gen Pos
Club
Dist
Pace
Wave
1143Paul MULHOLLAND01:14:09.740-44142Male1Adelaide Harriers21.13:30 min:sec/km21.1K start at 9:30am
254Byron GOODRICK01:20:51.815-19119Male2Fast Lane Coaching21.13:49 min:sec/km21.1K start at 9:30am
327Luke ELLIOTT01:23:46.225-29126Male3Southern Athletic Club21.13:58 min:sec/km21.1K start at 9:30am
4342Dave TALBOT01:24:23.040-44244Male4 21.13:59 min:sec/km21.1K start at 9:30am
5399Phil NEIL01:25:56.930-34133Male5 21.14:04 min:sec/km21.1K start at 9:30am
6272Chris BICKLE01:26:40.535-39139Male6 21.14:06 min:sec/km21.1K start at 9:30am
7300Mike KLOCKE01:28:05.020-24123Male7Adelaide Harriers21.14:10 min:sec/km21.1K start at 9:30am
7357Tim PRYOR01:28:05.025-29226Male7Adelaide Harriers21.14:10 min:sec/km21.1K start at 9:30am
9394Pieter DE WIT01:30:10.245-49148Male9Adelaide Harriers21.14:16 min:sec/km21.1K start at 9:30am
10359Bryn NICHOLLS01:30:10.540-44340Male10Adelaide Harriers21.14:16 min:sec/km21.1K start at 9:30am
10365Liam FITZPATRICK01:30:10.530-34233Male10Adelaide Harriers21.14:16 min:sec/km21.1K start at 9:30am
12445Stuart Gollan01:30:10.735-39237Male12 21.14:16 min:sec/km21.1K start at 9:30am
13363Michael VARNEY01:30:10.845-49247Male13Adelaide Harriers21.14:16 min:sec/km21.1K start at 9:30am
14326Cameron BROWN01:30:10.930-34333Male14Adelaide Harriers21.14:16 min:sec/km21.1K start at 9:30am
15379Jason HATZIMIHAIL01:30:58.930-34433Male15Adelaide Triathlon Club21.14:18 min:sec/km21.1K start at 9:30am
16440Belinda RICHARDSON01:31:08.630-34133Female1Adelaide Harriers21.14:19 min:sec/km21.1K start at 9:30am
17374Gordon KNIGHT01:31:13.945-49348Male16 21.14:19 min:sec/km21.1K start at 9:30am
1884Peter HANNA01:31:44.930-34532Male17 21.14:20 min:sec/km21.1K start at 9:30am
19354Tim KASSEBAUM01:32:39.230-34631Male18 21.14:23 min:sec/km21.1K start at 9:30am
20382Andy EY01:33:39.630-34731Male19 21.14:26 min:sec/km21.1K start at 9:30am
21438Jack HUNTER01:33:45.215-19219Male20Adelaide Harriers21.14:26 min:sec/km21.1K start at 9:30am
22360Michael NITSCHKE01:34:06.530-34832Male21Adelaide Harriers21.14:27 min:sec/km21.1K start at 9:30am
23358Mitch DURBRIDGE01:34:07.045-49447Male22Adelaide Harriers21.14:27 min:sec/km21.1K start at 9:30am
24339Paul SMITH01:34:10.930-34933Male23Adelaide Harriers21.14:27 min:sec/km21.1K start at 9:30am
25429Sinead NOONAN01:34:11.325-29126Female2Adelaide Harriers21.14:27 min:sec/km21.1K start at 9:30am
26356Adrian POTTER01:34:15.720-24223Male24Adelaide Harriers21.14:28 min:sec/km21.1K start at 9:30am
27437Eamon HARTY01:34:16.330-341030Male25Adelaide Harriers21.14:28 min:sec/km21.1K start at 9:30am
28373Acacia WADHAM01:34:20.720-24122Female3 21.14:28 min:sec/km21.1K start at 9:30am
29443Daniel Brewster01:34:36.135-39335Male26 21.14:29 min:sec/km21.1K start at 9:30am
30403Steve HODGSON01:35:06.640-44442Male27 21.14:30 min:sec/km21.1K start at 9:30am
31284Declan MILLINGTON01:35:25.925-29329Male28 21.14:31 min:sec/km21.1K start at 9:30am
32412Matthew KENNY01:35:26.230-341132Male29Trail Running SA21.14:31 min:sec/km21.1K start at 9:30am
33320Matthew BARTER01:35:34.840-44544Male30Lochiel parkrun21.14:31 min:sec/km21.1K start at 9:30am
3428Mick ATHERTON01:35:44.260-64162Male31Southern Athletic Club21.14:32 min:sec/km21.1K start at 9:30am
35267Nathan GRIEGER01:35:54.630-341233Male32 21.14:32 min:sec/km21.1K start at 9:30am
3669Hunter WINDOW01:35:56.315-19315Male33Camden Running Club21.14:32 min:sec/km21.1K start at 9:30am
37321Kate DIDYK01:35:58.830-34234Female4Team Tempo21.14:32 min:sec/km21.1K start at 9:30am
38355Brad ELLIOTT01:36:00.335-39435Male34 21.14:32 min:sec/km21.1K start at 9:30am
39402Mark MOYLE01:36:24.835-39536Male35Absolute Edge Lifestyles21.14:34 min:sec/km21.1K start at 9:30am
4015Jason STEVENS01:36:45.240-44640Male36Southern Athletic Club21.14:35 min:sec/km21.1K start at 9:30am
41427Rob PRESSER01:36:50.245-49545Male37 21.14:35 min:sec/km21.1K start at 9:30am
42380Steve HODGKISON01:36:50.830-341333Male38 21.14:35 min:sec/km21.1K start at 9:30am
43384Jonathan MILLER01:37:16.450-54153Male39Trail Running SA21.14:36 min:sec/km21.1K start at 9:30am
4457Gen HALL01:37:29.135-39135Female5enerGplus21.14:37 min:sec/km21.1K start at 9:30am
45318Nick MCDERMOTT01:38:02.440-44744Male40Adelaide Harriers21.14:38 min:sec/km21.1K start at 9:30am
4692Terence RICKETTS01:38:47.535-39639Male41Absolute Edge Lifestyles21.14:40 min:sec/km21.1K start at 9:30am
47308Tony KENNEDY01:38:54.945-49645Male42 21.14:41 min:sec/km21.1K start at 9:30am
48407Andrew BURNS01:39:03.760-64260Male43Adelaide Harriers21.14:41 min:sec/km21.1K start at 9:30am
49122Alex MACLEOD01:39:04.530-341431Male44 21.14:41 min:sec/km21.1K start at 9:30am
50409Andrew DILLON01:39:05.440-44840Male45 21.14:41 min:sec/km21.1K start at 9:30am
Page 1 of 8 (357 items)
[1]2345678

HyperLink Copyright (c) G Vincent, 2018